Tracking 20037 objects as of 21-Nov-2019
Live streaming from Space Station
objects crossing your sky now

TITAN 3C TRANSTAGE DEB

Track TITAN 3C TRANSTAGE DEB now!
10-day predictions


NORAD ID: 1642
Int'l Code: 1965-082D
Perigee: 621.1 km
Apogee: 657.3 km
Inclination: 32.1 °
Period: 97.4 minutes
Semi major axis: 7010 km
RCS: 2.2943 m2 (large)
Launch date: October 15, 1965
Source: United States (US)
Launch site: AIR FORCE EASTERN TEST RANGE (AFETR)

Note: This is SATELLITE DEBRIS
aabbcc
Your satellite tracking list
Your tracking list is empty




NASA's NSSDC Master Catalog

Two Line Element Set (TLE):
1  1642U 65082D   19324.62747403  .00000129  00000-0  11105-4 0  9990
2  1642  32.0956  53.0900 0025817 319.5594  40.3137 14.79143557902696
Source of the keplerian elements: AFSPC